Main page
METAR-TAF:

METAR-TAF

Airports :

Troll A, Norway

Oil platform

latitude: 60-38-42N, longitude: 3-43-29E, elevation: 20 m

Current weather observation

The report was made 31 minutes ago, at 04:20 UTC
Wind 26 kt from the East
Temperature 12°C
Humidity 58%
Pressure 1005 hPa
Visibility 10 km or more

METAR: ENQA 220420Z AUTO 10026KT 9999NDV OVC050/// 12/04 Q1005 W11/S4

Time: 06:51 (04:51 UTC)


TAF: missing

Weather observations and forecasts of more than 4000 airports (METAR and TAF reports).

The available stations are represented by yellow and red dots on the map.

Hover mouse over dot to see the name of the station.

Then click to see weather observations and forecasts.

To change the map : click on the green buttons with a black cross to zoom in, on the green button with a dash to zoom out, or on the green arrows for adjacent maps.


METAR-TAF: